Weather Roundup
Issued by NWS Springfield, MO

Home | Current Version | Previous Version | Text Only | Print | Product List | Glossary On
Versions: 1 2 3 4 5 6 7 8 9 10 11 12 13 14 15 16 17 18 19 20 21 22 23 24 25 26 27 28 29 30 31 32 33 34 35 36 37 38 39 40 41 42 43 44 45 46 47 48 49 50
000
NZUS99 KSGF 201807
HRRSGF

HOURLY WEATHER
NATIONAL WEATHER SERVICE SPRINGFIELD MO
100 PM CDT MON OCT 20 2014

......SGF CWA......

CITY           SKY/WX    TMP DP  RH WIND       PRES   REMARKS
SPRINGFIELD    SUNNY     69  55  60 MISG      30.05F
6HR MIN TEMP:  56; 6HR MAX TEMP:  69;

JOPLIN         SUNNY     70  58  65 NW8       30.07F
6HR MIN TEMP:  58; 6HR MAX TEMP:  70;

WEST PLAINS    PTSUNNY  N/A N/A N/A W10       30.05F
6HR MIN TEMP:  53; 6HR MAX TEMP:  70;

ROLLA          SUNNY     69  55  60 W12       30.00F
6HR MIN TEMP:  50; 6HR MAX TEMP:  69;

OSAGE BEACH    SUNNY     70  54  56 NW7       30.03F
BRANSON        MOSUNNY   72  57  60 W6        30.07F

......SURROUNDING SGF CWA......

CITY           SKY/WX    TMP DP  RH WIND       PRES   REMARKS
CHANUTE        SUNNY     74  57  55 N5        30.06F
PARSONS        SUNNY     74  59  59 N9        30.07F
COFFEYVILLE    SUNNY     73  58  59 CALM      30.05F
EMPORIA        SUNNY     74  54  49 N8        30.06F
GROVE OK       SUNNY     70  59  68 W5        30.07F
ROGERS AR      CLOUDY    67  57  70 W7        30.09F
SILOAM SPRINGS PTSUNNY   66  54  63 W7        30.09F
HARRISON AR    MOSUNNY   71  58  63 W9        30.07F
NEAR YELLVILLE PTSUNNY   70  55  60 NW8       30.05F

......KANSAS AND MISSOURI......

CITY           SKY/WX    TMP DP  RH WIND       PRES   REMARKS
KANSAS CTY INT SUNNY     70  47  43 NE6       30.07F
DOWNTOWN KC    SUNNY     72  48  42 NE7       30.05F
COLUMBIA       SUNNY     69  49  48 NW8       30.02F
SEDALIA        SUNNY     72  49  44 NW5       30.05F
ST JOSEPH      SUNNY     69  44  40 CALM      30.07F
ST LOUIS       SUNNY     72  51  47 NW14      29.97F
SPIRIT OF STL  SUNNY     72  50  45 NW8       29.96F
KIRKSVILLE     SUNNY     68  45  43 N13       30.03F
WICHITA        SUNNY     77  54  44 E9        30.07F
TOPEKA         SUNNY     71  53  52 N5        30.07F
OLATHE         SUNNY     71  51  49 NE8       30.05F

......TENNESSEE......

CITY           SKY/WX    TMP DP  RH WIND       PRES   REMARKS
MEMPHIS        PTSUNNY   69  49  48 W8        30.06F
NASHVILLE      PTSUNNY   65  48  54 SW7       30.04F

......ARKANSAS.......

CITY           SKY/WX    TMP DP  RH WIND       PRES   REMARKS
FAYETTEVILLE   CLOUDY    63  56  78 W5        30.08F
FT SMITH       CLOUDY    64  55  72 CALM      30.08F
LITTLE ROCK    CLOUDY    68  51  54 SW7       30.08F

......OKLAHOMA.......

CITY           SKY/WX    TMP DP  RH WIND       PRES   REMARKS
TULSA          SUNNY     71  58  63 VRB5      30.04F
PONCA CITY     SUNNY     75  59  57 NE7       30.04F
MCALESTER      MOSUNNY   76  58  53 SW7       30.07F
OKLAHOMA CITY  MOSUNNY   79  60  52 SW3       30.05F

......IOWA............

CITY           SKY/WX    TMP DP  RH WIND       PRES   REMARKS
DES MOINES     SUNNY     68  41  37 NW13      30.03F
QUAD CITIES    SUNNY     65  44  46 N13       29.93F

......ILLINOIS........

CITY           SKY/WX    TMP DP  RH WIND       PRES   REMARKS
QUINCY         SUNNY     67  44  43 NW14G20   29.98F
CHICAGO        MOSUNNY   63  46  54 VRB7      29.84F



USA.gov is the U.S. government's official web portal to all federal, state and local government web resources and services.